カタログに戻る

INTELSAT 12

PAS 12

運用中通信GEO
NORAD 26590·PAYLOAD·🇪🇺 EU

打ち上げ Oct 29, 2000 から Guiana Space Centre

Loading…

TLE

最新Source: Space-Track

元期: Sep 14, 2026, 18:47 UTC

1 26590U 00068A   26257.78272764 -.00000247  00000-0  00000-0 0  9995
2 26590   8.5531  63.3800 0011492 200.3980 340.3222  0.99031023 52386

AllMySatでINTELSAT 12をリアルタイム追跡

Download on the App Store